Regional Weather Roundup
Issued by NWS

Home | Current Version | Previous Version | Text Only | Print | Product List | Glossary On
Versions: 1 2 3 4 5 6 7 8 9 10 11 12 13 14 15 16 17 18 19 20 21 22 23 24 25 26 27 28 29 30 31 32 33 34 35 36 37 38 39 40 41 42 43 44 45 46 47 48 49 50
000
ASUS44 KOUN 191510
RWROK

WEATHER ROUNDUP FOR OKLAHOMA
NATIONAL WEATHER SERVICE NORMAN OK
1000 AM CDT SUN APR 19 2015

NOTE: "FAIR" INDICATES FEW OR NO CLOUDS BELOW 12,000 FEET WITH NO
      SIGNIFICANT WEATHER AND/OR OBSTRUCTIONS TO VISIBILITY.

OKZ001>007-009>012-014-015-017-191600-
NORTHWEST OKLAHOMA AND THE PANHANDLE

CITY           SKY/WX    TMP DP  RH WIND       PRES   REMARKS
GAGE           PTSUNNY   52  43  71 NW12      29.82R
GUYMON         CLOUDY    53  40  61 N38G48    29.90R
ENID/WOODRING  PTSUNNY   57  55  94 NW10      29.76R
$$

OKZ016-021>023-033>039-044-045-191600-
SOUTHWEST OKLAHOMA

CITY           SKY/WX    TMP DP  RH WIND       PRES   REMARKS
LAWTON/REGL    CLOUDY    60  53  77 N15       29.76R
LAWTON/FT SILL CLOUDY    61  55  82 N13       29.75R
FREDERICK      SUNNY     63  53  70 N14       29.75R
CLINTON        SUNNY     58  44  60 NW16      29.82S
HOBART         MOSUNNY   61  45  55 N20G28    29.80S
ALTUS AFB      MOSUNNY   62  46  55 N14G23    29.80R
$$

OKZ018>020-024>031-191600-
CENTRAL OKLAHOMA

CITY           SKY/WX    TMP DP  RH WIND       PRES   REMARKS
OKLAHOMA CITY  CLOUDY    60  50  69 N9        29.76F
OKC/WILEY POST CLOUDY    60  49  66 NE7       29.77F
OKC/TINKER AFB DRIZZLE   59  52  77 N8        29.76S
STILLWATER     CLOUDY    60  51  72 N10       29.75F
GUTHRIE        CLOUDY    61  49  64 NE6       29.76F
$$

OKZ008-013-054>072-191600-
NORTHEAST OKLAHOMA

CITY           SKY/WX    TMP DP  RH WIND       PRES   REMARKS
TULSA          PTSUNNY   61  56  83 NW12      29.76S
TULSA/JONES    MOSUNNY   62  54  74 NW6       29.77S
PONCA CITY     RAIN      55  50  83 NE10      29.76F
BARTLESVILLE   LGT RAIN  55  55 100 W9G18     29.78F
MUSKOGEE       SUNNY     63  58  83 CALM      29.75S
$$

OKZ032-040>043-046>053-073>077-191600-
SOUTH CENTRAL/SOUTHEAST OKLAHOMA

CITY           SKY/WX    TMP DP  RH WIND       PRES   REMARKS
ARDMORE/DWNTWN CLOUDY    61  55  82 S6        29.71S
MCALESTER      SUNNY     64  56  75 SW7       29.74F
$$




USA.gov is the U.S. government's official web portal to all federal, state and local government web resources and services.